アトラス彗星

C/2022 U2 ( ATLAS )

English version
Home page
Updated on June 25, 2023

---------------------------------------------------------------------

・ プロフィール

発見日 2022年10月25日
発見光度 19.1等
発見者 Asteroid Terrestrial-Impact Last Alert System (ATLAS) search program

・ 写真集

・ 軌道要素

Epoch 2023 Feb. 25.0 TT = JDT 2460000.5
T 2023 Jan. 14.22168 TT                                 Rudenko
q   1.3280278            (2000.0)            P               Q
z  +0.0104307      Peri.  147.91002     -0.18795328     -0.76578458
 +/-0.0000009      Node   304.47595     +0.66684824     +0.36023569
e   0.9861477      Incl.   48.24954     +0.72110123     -0.53273278
>From 1009 observations 2022 Oct. 25-2023 Apr. 9, mean residual 0".6.

・ 星図

・ 光度変化

        m1 = 8.0 + 5 logΔ + 24.0 log r(t - 10)

---------------------------------------------------------------------

軌道要素はM.P.E.C. 2023-H131に掲載されたものです。
星図はステラナビゲータ Ver.10 (アストロアーツ) で作成したものです。
光度グラフはComet for Windowsで作成したものです。

---------------------------------------------------------------------

Copyright(C) Seiichi Yoshida (comet@aerith.net). All rights reserved.